Weather History for Champaign, IL

Change the Weather History Date:

Tuesday, April 22, 2014

  Actual Average Record
Temperature  
Mean Temperature 54 °F 54 °F  
Max Temperature 66 °F 66 °F 86 °F (2001)
Min Temperature 42 °F 42 °F 33 °F (2002)
Degree Days  
Heating Degree Days 11 11  
Month to date heating degree days 303 331  
Since 1 July heating degree days 6307 5589  
Cooling Degree Days 0 0  
Month to date cooling degree days 3 0  
Year to date cooling degree days 3 1  
Growing Degree Days 6 (Base 50)    
Moisture  
Dew Point 39 °F    
Average Humidity 61    
Maximum Humidity 93    
Minimum Humidity 28    
Precipitation  
Precipitation 0.00 in 0.12 in 0.78 in (2011)
Month to date precipitation 1.74 2.64  
Year to date precipitation 5.88 9.46  
Sea Level Pressure  
Sea Level Pressure 29.94 in    
Wind  
Wind Speed 14 mph (NNW)    
Max Wind Speed 24 mph    
Max Gust Speed 30 mph    
Visibility 10 miles    
Events      
T = Trace of Precipitation, MM = Missing Value Source: NWS Daily Summary

Daily Weather History Graph

Daily Weather History Graph

Search for Another Location

Airport:

Trip Planner

Search our weather history database for the weather conditions in past years. The results will help you decide how hot, cold, wet, or windy it might be!

Date:

Astronomy

Apr. 22, 2014 Rise Set
Actual Time 6:05 AM CDT 7:38 PM CDT
Civil Twilight 5:36 AM CDT 8:07 PM CDT
Nautical Twilight 5:02 AM CDT 8:42 PM CDT
Astronomical Twilight 4:25 AM CDT 9:18 PM CDT
Moon 1:53 AM CDT (4/22) 12:40 PM CDT (4/22)
Length of Visible Light 14h 30m
Length of Day
13h 33m
Last Quarter, 46% of the Moon is Illuminated
Apr 22
Last Quarter
Apr 29
New
May 6
First Quarter
May 14
Full
May 21
Last Quarter

Hourly Weather History & Observations

Time (CDT) Temp. Windchill Dew Point Humidity Pressure Visibility Wind Dir Wind Speed Gust Speed Precip Events Conditions
12:53 AM 57.9 °F - 55.0 °F 90% 29.85 in 6.0 mi West 8.1 mph - N/A   Mostly Cloudy
1:53 AM 59.0 °F - 55.9 °F 90% 29.85 in 7.0 mi West 10.4 mph - N/A   Scattered Clouds
2:53 AM 55.9 °F - 54.0 °F 93% 29.84 in 6.0 mi WNW 10.4 mph - N/A   Clear
3:53 AM 55.9 °F - 51.1 °F 84% 29.85 in 10.0 mi NW 11.5 mph - N/A   Overcast
4:53 AM 53.1 °F - 46.0 °F 77% 29.86 in 10.0 mi NW 12.7 mph - N/A   Clear
5:53 AM 51.1 °F - 43.0 °F 74% 29.89 in 10.0 mi NNW 17.3 mph - N/A   Clear
6:53 AM 50.0 °F - 39.9 °F 68% 29.93 in 10.0 mi North 20.7 mph 29.9 mph N/A   Clear
7:53 AM 51.1 °F - 41.0 °F 68% 29.96 in 10.0 mi North 13.8 mph - N/A   Clear
8:53 AM 53.1 °F - 41.0 °F 64% 29.97 in 10.0 mi North 16.1 mph - N/A   Clear
9:53 AM 55.0 °F - 41.0 °F 59% 29.98 in 10.0 mi North 13.8 mph - N/A   Clear
10:53 AM 57.9 °F - 37.0 °F 46% 29.98 in 10.0 mi NNW 16.1 mph 23.0 mph N/A   Clear
11:53 AM 59.0 °F - 36.0 °F 42% 29.98 in 10.0 mi NNW 12.7 mph 23.0 mph N/A   Clear
12:53 PM 61.0 °F - 34.0 °F 36% 29.96 in 10.0 mi WNW 8.1 mph 25.3 mph N/A   Clear
1:53 PM 64.0 °F - 33.1 °F 31% 29.96 in 10.0 mi NW 20.7 mph 25.3 mph N/A   Clear
2:53 PM 64.0 °F - 34.0 °F 33% 29.95 in 10.0 mi NW 15.0 mph 23.0 mph N/A   Clear
3:53 PM 66.0 °F - 34.0 °F 30% 29.94 in 10.0 mi NNW 16.1 mph 25.3 mph N/A   Clear
4:53 PM 64.9 °F - 32.0 °F 29% 29.95 in 10.0 mi NNW 13.8 mph 24.2 mph N/A   Clear
5:53 PM 64.0 °F - 30.9 °F 29% 29.95 in 10.0 mi NNW 15.0 mph - N/A   Clear
6:53 PM 61.0 °F - 30.9 °F 32% 29.96 in 10.0 mi NNW 16.1 mph - N/A   Clear
7:53 PM 55.9 °F - 32.0 °F 40% 29.97 in 10.0 mi North 12.7 mph - N/A   Clear
8:53 PM 50.0 °F - 32.0 °F 50% 29.99 in 10.0 mi North 8.1 mph - N/A   Clear
9:53 PM 48.9 °F - 32.0 °F 52% 30.00 in 10.0 mi North 9.2 mph - N/A   Clear
10:53 PM 46.9 °F - 34.0 °F 61% 30.02 in 10.0 mi NE 17.3 mph 26.5 mph N/A   Clear
11:53 PM 45.0 °F 37.9 °F 32.0 °F 60% 30.04 in 10.0 mi NE 16.1 mph - N/A   Clear